Ponca City, OK

4:09 AM CDT on May 23, 2017 (GMT -0500)
Ponca City Municipal

Weather History for KPNC - March, 2013

Change the Weather History Date:

Sunday, March 10, 2013

  Actual Average Record
Temperature  
Mean Temperature 42 °F -  
Max Temperature 53 °F 63 °F 90 °F (1955)
Min Temperature 30 °F 36 °F 9 °F (1948)
Degree Days  
Heating Degree Days 24    
Moisture  
Dew Point 30 °F    
Average Humidity 76    
Maximum Humidity 86    
Minimum Humidity 66    
Precipitation  
Precipitation 0.00 in - - ()
Sea Level Pressure  
Sea Level Pressure 29.86 in    
Wind  
Wind Speed 13 mph (NW)    
Max Wind Speed 23 mph    
Max Gust Speed 34 mph    
Visibility 10 miles    
Events Rain    
Averages and records for this station are not official NWS values.
T = Trace of Precipitation, MM = Missing Value Source: NWS Daily Summary

Daily Weather History Graph

Daily Weather History Graph

Search for Another Location

Airport or City:

Trip Planner

Search our weather history database for the weather conditions in past years. The results will help you decide how hot, cold, wet, or windy it might be!

Date:

Astronomy

Mar. 10, 2013 Rise Set
Actual Time 7:46 AM CDT 7:31 PM CDT
Civil Twilight 7:20 AM CDT 7:57 PM CDT
Nautical Twilight 6:50 AM CDT 8:27 PM CDT
Astronomical Twilight 6:20 AM CDT 8:57 PM CDT
Moon 6:45 AM CDT (3/10) 6:40 PM CDT (3/10)
Length of Visible Light 12h 36m
Length of Day
11h 45m
Waning Crescent, 2% of the Moon is Illuminated
Mar 10
Waning Crescent
Mar 11
New
Mar 19
First Quarter
Mar 27
Full
Apr 2
Last Quarter

Hourly Weather History & Observations

Time (CDT) Temp. Windchill Dew Point Humidity Pressure Visibility Wind Dir Wind Speed Gust Speed Precip Events Conditions
12:53 AM 53.1 °F - 46.0 °F 77% 29.63 in 10.0 mi South 5.8 mph - N/A   Clear
1:53 AM 46.0 °F 40.6 °F 41.0 °F 83% 29.65 in 10.0 mi West 11.5 mph - N/A   Clear
3:15 AM 44.6 °F 37.8 °F 39.2 °F 81% 29.64 in 10.0 mi WNW 15.0 mph 23.0 mph N/A   Scattered Clouds
3:25 AM 42.8 °F 35.4 °F 37.4 °F 81% 29.66 in 10.0 mi WNW 15.0 mph 23.0 mph N/A   Mostly Cloudy
3:39 AM 42.8 °F 36.2 °F 37.4 °F 81% 29.68 in 10.0 mi WNW 12.7 mph 20.7 mph N/A   Overcast
3:53 AM 43.0 °F 38.2 °F 37.9 °F 82% 29.69 in 10.0 mi WNW 8.1 mph 17.3 mph N/A   Overcast
4:53 AM 41.0 °F 34.3 °F 36.0 °F 82% 29.66 in 10.0 mi NW 11.5 mph 19.6 mph N/A   Overcast
5:53 AM 41.0 °F 33.9 °F 36.0 °F 82% 29.69 in 10.0 mi NNW 12.7 mph 24.2 mph N/A   Overcast
6:53 AM 39.0 °F 31.4 °F 35.1 °F 86% 29.73 in 10.0 mi NW 12.7 mph 21.9 mph N/A   Overcast
7:53 AM 37.9 °F 29.2 °F 33.1 °F 83% 29.75 in 10.0 mi NNW 15.0 mph 21.9 mph N/A   Overcast
8:53 AM 37.9 °F 29.2 °F 33.1 °F 83% 29.75 in 10.0 mi NNW 15.0 mph 25.3 mph N/A   Overcast
9:53 AM 37.9 °F 29.2 °F 32.0 °F 79% 29.78 in 10.0 mi NNW 15.0 mph 25.3 mph N/A   Overcast
10:45 AM 37.4 °F 28.9 °F 32.0 °F 81% 29.83 in 10.0 mi NNW 13.8 mph 20.7 mph N/A   Overcast
10:53 AM 37.0 °F 27.4 °F 30.9 °F 79% 29.83 in 10.0 mi NNW 17.3 mph 20.7 mph N/A   Overcast
11:53 AM 37.0 °F 25.9 °F 30.9 °F 79% 29.85 in 10.0 mi North 23.0 mph 29.9 mph N/A   Overcast
12:22 PM 35.6 °F 24.5 °F 30.2 °F 81% 29.85 in 4.0 mi NNW 20.7 mph 31.1 mph 0.00 in Rain Light Freezing Rain
12:50 PM 35.6 °F 24.0 °F 28.4 °F 75% 29.87 in 10.0 mi NW 23.0 mph 34.5 mph 0.00 in   Overcast
12:53 PM 36.0 °F 24.4 °F 28.0 °F 73% 29.88 in 10.0 mi NNW 23.0 mph 34.5 mph 0.00 in   Overcast
1:53 PM 35.1 °F 24.8 °F 27.0 °F 72% 29.89 in 10.0 mi NNW 17.3 mph 32.2 mph N/A   Overcast
2:53 PM 35.1 °F 23.5 °F 25.0 °F 67% 29.91 in 10.0 mi NNW 21.9 mph 29.9 mph N/A   Overcast
3:53 PM 34.0 °F 22.7 °F 24.1 °F 67% 29.95 in 10.0 mi NW 19.6 mph 27.6 mph N/A   Overcast
5:53 PM 32.0 °F 20.5 °F 23.0 °F 69% 29.99 in 10.0 mi North 18.4 mph 25.3 mph N/A   Overcast
6:53 PM 32.0 °F 20.1 °F 23.0 °F 69% 30.01 in 10.0 mi NNW 19.6 mph 24.2 mph N/A   Overcast
7:53 PM 32.0 °F 21.2 °F 21.9 °F 66% 30.02 in 10.0 mi NNW 16.1 mph 21.9 mph N/A   Overcast
8:24 PM 30.2 °F 19.3 °F 21.2 °F 69% 30.01 in 10.0 mi NNW 15.0 mph 20.7 mph N/A   Overcast
8:43 PM 30.2 °F 20.2 °F 23.0 °F 75% 30.02 in 10.0 mi NNW 12.7 mph - N/A   Overcast
8:53 PM 30.9 °F 21.7 °F 23.0 °F 72% 30.04 in 10.0 mi NNW 11.5 mph - N/A   Overcast
9:53 PM 32.0 °F 23.6 °F 23.0 °F 69% 30.06 in 10.0 mi NNW 10.4 mph 19.6 mph N/A   Overcast
10:40 PM 32.0 °F 23.6 °F 23.0 °F 69% 30.05 in 10.0 mi NW 10.4 mph - N/A   Overcast
10:53 PM 32.0 °F 24.2 °F 24.8 °F 75% 30.05 in 10.0 mi NW 9.2 mph - N/A   Overcast
11:53 PM 32.0 °F 22.5 °F 23.0 °F 69% 30.07 in 10.0 mi NNW 12.7 mph - N/A   Overcast
12:53 AM 32.0 °F 23.6 °F 23.0 °F 69% 30.05 in 10.0 mi NW 10.4 mph 20.7 mph N/A   Overcast